CDT,Max TemperatureF,Mean TemperatureF,Min TemperatureF,Max Dew PointF,MeanDew PointF,Min DewpointF,Max Humidity, Mean Humidity, Min Humidity, Max Sea Level PressureIn, Mean Sea Level PressureIn, Min Sea Level PressureIn, Max VisibilityMiles, Mean VisibilityMiles, Min VisibilityMiles, Max Wind SpeedMPH, Mean Wind SpeedMPH, Max Gust SpeedMPH,PrecipitationIn, CloudCover, Events, WindDirDegrees
2012-9-1,95,85,75,75,73,67,94,76,41,30.18,30.13,30.06,10,6,0,6,1,,0.00,4,Fog,278
2012-9-2,80,77,75,74,72,71,90,87,79,30.10,30.07,30.04,10,3,0,8,2,,0.00,5,Fog,323
2012-9-3,,,,,,,,,,,,,,,,,,,,,,
2012-9-4,,,,,,,,,,,,,,,,,,,,,,
2012-9-5,87,81,75,74,73,72,91,78,61,29.93,29.89,29.84,10,10,8,9,5,,0.00,6,,143
2012-9-6,91,83,75,76,73,71,89,79,55,29.98,29.93,29.88,10,8,2,9,3,,0.03,5,Rain,144
2012-9-7,93,83,73,75,71,69,89,79,46,29.97,29.92,29.84,10,5,0,9,0,,0.01,3,Fog,133
2012-9-8,93,83,73,74,72,69,91,75,46,29.89,29.84,29.75,10,8,3,15,2,,0.00,5,Rain,14
2012-9-9,84,76,68,67,60,55,81,61,37,30.01,29.95,29.86,10,10,10,13,7,17,0.00,0,,11
2012-9-10,87,75,63,66,60,56,84,63,37,30.08,30.05,30.01,10,10,9,7,2,,0.00,1,,52
2012-9-11,86,74,63,63,59,54,87,62,33,30.19,30.13,30.07,10,10,7,12,3,17,0.00,1,,110
2012-9-12,87,78,70,64,62,57,76,59,37,30.22,30.16,30.13,10,10,10,15,7,18,0.00,1,,112
2012-9-13,87,78,69,64,63,60,84,63,40,30.22,30.16,30.11,10,10,10,14,6,,0.00,1,,109
2012-9-14,87,78,68,65,64,62,84,64,44,30.16,30.13,30.09,10,10,7,9,4,,0.00,3,,84
2012-9-15,90,81,72,69,66,64,85,65,43,30.14,30.09,30.03,10,10,10,10,4,,0.00,4,,101
2012-9-16,90,80,70,70,68,66,87,74,45,30.07,30.02,29.96,10,8,2,10,2,20,0.11,2,Rain,166
2012-9-17,80,76,71,73,71,68,89,86,78,29.99,29.87,29.78,10,7,0,13,4,17,0.72,7,Fog-Rain-Thunderstorm,161
2012-9-18,82,77,71,72,69,64,90,79,54,29.95,29.79,29.72,10,8,1,24,6,33,0.27,6,Rain-Thunderstorm,275
2012-9-19,82,73,63,65,59,53,84,68,37,30.07,30.01,29.95,10,8,5,9,5,,0.00,0,,11
2012-9-20,86,73,60,64,57,53,84,63,33,30.08,30.04,29.99,10,10,8,7,1,,0.01,0,,7
2012-9-21,89,76,64,67,64,59,90,77,40,30.07,30.03,29.96,10,6,0,6,1,,0.00,2,Fog,114
2012-9-22,91,78,64,67,64,61,88,70,40,30.08,30.04,29.99,10,7,2,9,1,,0.01,1,,340
2012-9-23,89,78,66,65,58,49,84,57,27,30.16,30.11,30.07,10,9,5,10,4,,0.00,0,,30
2012-9-24,82,70,59,57,50,41,81,51,23,30.19,30.13,30.07,10,10,10,8,3,,0.00,0,,50
2012-9-25,86,70,53,60,54,48,83,61,31,30.17,30.12,30.09,10,10,10,7,2,,0.00,0,,118
2012-9-26,88,76,63,66,63,58,87,69,44,30.16,30.12,30.08,10,9,5,9,2,,0.00,1,,162
2012-9-27,90,78,66,70,67,61,87,72,43,30.17,30.11,30.04,10,9,5,8,2,,0.01,1,,135
2012-9-28,89,78,68,71,67,63,88,71,45,30.09,30.04,29.96,10,8,2,5,1,,0.00,1,,138
2012-9-29,87,79,71,71,68,64,88,75,46,30.00,29.93,29.88,10,6,2,7,1,,0.06,3,Rain,333
2012-9-30,80,76,73,73,70,68,89,83,74,29.88,29.78,29.67,10,7,1,12,3,17,0.39,6,Rain,160